Theta_e
332 328 329 327 332 332 333 328 322 324 327 327 331 330 332 332 334 336 329 331 332 327 323 325 328 329 330 331 331 332 330 329 329 330 329 329 330 331 332 332 332 332 332 332 334 334 333 331 329
329 325 328 330 334 335 335 331 326 323 321 329 331 332 333 333 332 333 331 332 332 328 324 324 326 328 329 324 330 333 330 330 331 329 329 330 331 334 336 336 336 335 335 336 335 335 333 332 330
329 329 331 334 335 336 335 332 332 328 322 323 324 328 329 334 333 332 332 332 331 329 329 323 323 326 323 326 332 333 331 332 332 331 334 336 335 335 335 336 336 335 335 335 334 333 331 328 325
323 328 331 337 336 334 334 333 333 328 327 324 323 325 327 328 327 329 332 332 331 331 332 325 322 322 321 332 332 333 333 334 333 334 334 334 333 332 332 331 331 333 333 332 330 328 325 321 316
325 330 335 338 338 335 335 333 332 332 330 330 328 330 327 328 328 329 329 330 331 333 335 332 324 323 323 335 332 332 334 334 334 334 332 330 331 331 329 327 325 324 324 323 322 319 315 310 308
327 331 337 339 337 336 335 334 334 333 331 330 331 330 331 329 329 328 328 328 332 336 335 333 326 325 327 336 336 335 335 334 335 334 331 326 327 326 324 322 320 318 316 314 313 310 306 305 304
325 333 336 336 336 335 334 333 334 334 333 332 332 333 332 329 330 328 327 328 334 337 336 336 331 330 330 333 334 335 335 335 335 332 326 324 323 322 320 317 315 312 310 309 306 304 303 304 304
321 327 332 335 337 336 333 333 333 333 333 332 333 334 333 332 329 328 326 328 333 336 335 335 335 333 335 335 334 335 335 335 332 329 324 320 320 319 317 313 309 307 305 304 303 303 303 303 304
314 321 328 332 334 334 332 333 331 332 333 332 331 332 330 329 330 327 325 329 333 335 334 334 332 334 336 336 336 335 334 332 330 326 321 318 318 315 311 307 304 303 303 303 303 303 303 303 303
312 314 318 321 324 326 326 326 329 331 331 330 331 329 325 325 327 325 325 328 332 333 331 332 332 334 335 337 337 333 332 331 327 322 318 315 313 310 306 303 302 302 303 303 303 303 303 304 304
311 313 314 315 315 316 317 320 323 328 331 330 331 330 328 325 325 324 325 326 327 332 330 330 333 335 335 337 335 333 331 329 322 318 314 311 309 307 302 302 302 302 302 303 303 304 304 304 305
309 310 311 313 313 312 315 317 320 322 327 327 328 329 329 324 320 322 323 324 325 327 331 330 334 337 335 333 331 330 328 323 317 315 310 307 306 303 302 302 302 302 303 303 304 304 304 304 304
309 309 309 309 309 310 311 313 315 316 320 322 322 323 324 322 321 319 321 323 323 325 327 328 329 330 331 330 329 327 323 317 314 308 304 305 303 302 302 302 303 303 303 303 304 304 304 304 305
309 310 311 310 309 310 311 312 311 312 313 315 316 316 316 316 316 317 318 320 322 323 323 324 324 326 326 329 328 324 319 316 309 303 303 303 302 302 303 303 304 304 303 303 304 304 304 305 305
309 310 311 310 311 312 312 313 314 313 312 313 314 315 315 315 316 316 316 316 318 321 321 320 320 321 323 325 325 322 320 314 306 303 303 302 302 303 303 304 304 303 303 304 304 304 304 305 305
310 310 311 312 312 311 312 313 315 316 316 315 314 315 317 317 317 316 315 316 316 318 319 317 317 318 320 323 323 321 317 310 305 303 302 302 303 303 304 303 303 303 303 303 304 304 304 304 305
308 308 310 311 313 313 313 314 314 316 316 317 316 317 316 316 316 316 316 315 315 315 317 316 316 316 319 321 321 319 314 308 304 302 302 303 303 304 303 303 303 303 304 304 304 304 304 304 304
308 308 309 310 311 312 312 313 312 312 313 313 313 314 314 315 314 313 313 313 313 314 314 315 315 316 316 318 317 314 309 307 304 302 302 303 304 303 303 303 303 303 304 304 304 304 304 304 304
308 308 308 309 310 309 310 311 311 311 311 313 312 312 312 313 313 314 314 313 312 312 312 313 314 315 315 315 315 312 310 308 304 302 302 303 304 304 303 304 303 303 304 304 304 304 304 304 304
307 308 309 309 308 308 308 308 309 309 310 310 310 310 310 310 310 310 310 312 311 312 312 311 312 315 315 316 316 316 315 310 306 303 302 303 304 304 303 304 304 304 303 304 304 304 304 304 303
308 309 310 310 310 308 307 308 310 309 310 309 309 309 309 309 309 309 310 310 310 310 311 311 311 312 314 315 313 311 310 307 304 302 302 303 303 303 303 304 304 304 303 303 303 304 304 304 303
308 309 309 309 308 308 308 308 311 311 310 311 311 310 309 309 308 308 308 308 309 308 309 310 310 310 312 312 312 313 315 310 309 307 304 303 303 303 303 304 304 303 303 303 303 303 303 303 303
307 307 308 307 307 308 308 305 310 310 309 310 310 310 309 309 309 308 308 307 307 307 307 308 308 309 310 311 312 312 312 312 310 306 304 302 303 303 303 303 304 303 303 303 303 303 303 303 303
306 305 303 304 305 309 308 309 311 312 314 314 313 310 309 309 308 307 306 306 306 305 306 306 306 307 307 308 310 311 311 311 308 306 304 302 302 303 303 303 303 303 303 303 303 303 303 302 302
306 305 308 308 307 308 310 309 310 312 310 310 310 310 309 307 308 307 307 306 304 305 305 305 305 305 306 306 307 308 309 310 310 310 307 303 302 303 303 303 303 303 303 302 302 302 302 302 302
303 306 312 313 315 312 310 307 311 311 310 310 308 307 306 307 307 304 303 302 302 303 304 306 305 305 305 305 305 306 306 307 308 309 308 305 302 303 303 303 303 303 303 302 302 302 302 302 302
305 304 306 308 308 307 310 307 309 309 308 308 307 307 305 303 302 301 300 300 300 301 302 304 305 305 305 304 304 304 305 305 306 308 307 305 303 302 303 303 302 303 302 302 302 302 302 301 301
302 303 304 305 307 310 310 311 312 312 310 306 304 303 302 301 300 299 299 298 298 299 300 302 303 304 304 304 303 304 304 304 305 305 306 306 304 302 303 303 302 302 302 302 302 301 301 301 301
301 302 304 306 306 310 311 312 305 306 305 304 302 301 300 299 298 298 297 297 297 297 298 299 301 302 303 302 302 303 303 303 303 303 304 305 305 302 302 303 302 302 302 302 302 301 301 301 300
299 301 303 306 306 306 308 311 304 304 303 303 301 299 298 298 297 296 295 295 295 295 296 296 297 299 301 301 302 302 302 302 302 302 303 304 305 303 302 302 302 301 301 302 302 301 301 300 300
Wind_Speed
13 9 8 4 6 7 14 14 7 10 7 6 3 6 8 15 8 3 2 10 12 18 20 25 27 26 24 22 22 20 18 16 15 14 12 12 11 9 8 7 7 6 5 4 3 2 3 2 2
9 7 6 9 8 13 14 15 14 12 16 2 5 9 11 15 16 2 2 10 15 18 21 26 27 27 25 23 22 21 19 17 15 14 13 13 11 10 10 10 8 7 7 7 7 7 5 5 5
13 9 11 6 14 18 17 16 6 13 8 9 9 8 11 6 4 4 8 7 15 20 21 26 27 27 26 24 22 22 20 18 15 13 14 13 13 14 12 12 11 11 11 10 10 9 10 10 11
3 6 10 11 24 22 18 16 13 8 6 7 12 11 9 12 2 6 8 11 16 20 22 26 27 28 27 25 23 22 21 18 15 17 18 15 16 14 12 11 12 12 12 13 13 14 13 13 13
7 9 11 15 29 26 24 27 23 18 17 11 12 17 18 11 14 14 12 11 18 20 22 25 28 29 28 25 23 22 20 19 20 21 19 15 14 14 13 13 13 14 14 15 15 15 14 13 11
12 10 12 17 28 25 25 30 27 23 26 26 18 17 26 14 18 18 17 15 18 20 23 25 29 30 29 26 24 24 23 22 23 22 19 14 15 16 16 15 15 16 16 16 15 14 11 9 9
17 13 18 24 28 27 26 26 20 24 25 27 28 21 20 14 20 20 17 16 19 20 23 24 29 30 27 30 29 28 27 26 26 24 18 16 16 17 16 16 16 16 17 14 13 10 9 7 7
17 13 25 22 25 33 27 29 31 27 27 31 30 21 20 21 19 20 18 18 20 22 24 27 29 31 32 31 31 30 29 28 27 23 19 18 17 17 18 16 17 17 14 12 10 9 8 7 6
10 9 18 26 29 29 26 15 19 26 28 30 21 25 18 14 17 17 17 19 22 24 27 31 34 35 34 34 33 31 30 28 25 23 20 17 19 18 18 19 15 14 12 11 10 9 8 8 8
11 14 25 24 25 25 25 24 21 18 18 25 26 25 19 16 19 18 20 24 26 29 34 35 38 38 36 35 34 33 31 29 26 25 23 21 22 20 19 17 15 14 13 12 11 10 9 9 8
12 22 22 25 32 30 28 23 28 23 26 33 30 29 29 28 26 24 24 25 27 28 28 40 40 39 38 37 36 35 35 32 29 27 25 24 24 22 20 18 17 15 14 13 12 11 10 9 8
19 25 25 27 31 31 23 30 25 33 34 34 33 30 29 24 23 26 25 25 27 30 30 30 41 42 39 38 36 33 33 32 31 29 27 27 26 23 22 19 18 17 15 14 12 11 10 10 8
24 23 29 28 28 28 31 28 28 34 31 35 36 34 29 29 26 26 27 26 28 29 30 33 32 36 40 39 36 35 33 32 30 28 28 28 27 24 23 21 19 17 16 15 13 12 11 10 9
11 14 23 28 27 28 21 25 28 26 27 39 37 34 32 32 33 31 27 31 30 32 33 32 36 39 39 41 41 39 35 32 30 29 28 29 27 25 23 22 20 19 17 16 14 13 11 10 9
23 21 22 24 25 23 16 27 31 37 36 37 33 33 33 33 34 35 34 33 34 36 36 38 39 41 42 43 42 39 36 33 31 31 30 30 29 26 24 23 21 20 18 16 15 13 12 10 10
16 19 19 8 16 15 12 30 16 18 30 35 36 35 33 33 32 34 34 32 34 35 35 37 40 42 45 45 43 42 37 34 33 33 33 32 30 27 26 24 22 21 18 17 15 13 12 11 10
17 21 23 23 15 6 18 28 16 12 13 26 27 28 26 27 28 30 33 35 35 36 36 38 41 44 46 46 44 42 39 36 35 34 34 32 31 29 27 25 23 21 19 18 16 14 13 11 11
18 25 22 24 17 15 19 31 24 30 23 21 24 26 27 28 29 25 29 31 35 38 40 39 42 45 46 47 45 42 41 38 37 37 35 34 33 30 28 26 24 22 20 19 17 15 14 12 10
27 28 31 28 14 7 19 29 28 25 29 22 30 32 35 37 37 36 32 34 34 39 40 43 45 46 48 50 50 48 46 42 41 39 38 36 34 31 30 28 25 23 21 19 17 16 14 13 11
28 30 32 26 22 16 19 33 29 27 27 31 33 36 40 41 40 41 42 40 39 40 45 42 48 49 50 52 53 52 48 45 44 43 40 37 35 35 33 29 27 24 22 20 18 17 15 13 12
29 29 30 27 18 18 17 32 34 28 31 39 42 44 41 41 42 43 37 36 39 42 46 48 52 54 52 51 53 52 48 45 46 45 43 41 41 36 30 29 28 25 23 20 19 17 16 14 13
25 28 24 21 12 16 9 18 26 20 22 18 18 29 34 36 36 35 32 30 38 44 44 48 49 53 55 53 55 58 58 57 53 49 47 45 40 36 35 34 29 26 25 22 20 18 17 15 14
22 8 17 18 19 19 23 9 22 3 10 11 15 24 28 26 24 24 23 25 28 34 40 45 49 51 53 57 57 57 59 57 53 52 51 47 43 41 39 34 31 29 26 22 21 20 18 16 15
9 10 2 5 10 13 30 18 31 18 24 20 11 8 9 3 5 10 10 15 20 25 33 37 43 49 52 54 56 58 59 59 56 51 52 49 46 44 40 36 34 30 28 24 22 20 19 17 15
18 12 7 7 6 12 21 16 27 3 6 14 11 5 3 3 5 5 5 7 10 17 25 30 37 43 47 51 52 56 57 58 58 54 50 52 50 47 45 41 38 34 29 25 23 21 19 17 17
22 21 10 14 14 17 16 11 22 16 16 17 3 7 7 6 2 6 7 6 4 7 14 19 25 33 39 45 49 52 53 55 56 54 51 50 52 49 45 43 40 35 31 27 24 22 19 19 18
16 19 29 12 11 4 8 14 20 16 15 5 6 1 8 7 8 10 11 11 8 3 5 13 17 25 29 36 40 44 48 49 54 54 50 48 47 49 47 44 40 37 33 29 26 24 21 20 18
20 6 13 10 9 14 12 20 13 7 9 6 6 8 11 11 12 13 14 14 13 9 4 4 9 14 21 26 32 39 44 47 50 51 52 50 45 47 48 46 42 38 35 33 30 26 24 22 20
10 11 7 5 12 10 9 9 5 5 7 7 8 9 10 11 12 14 14 15 16 15 12 7 2 6 13 19 24 29 35 39 44 47 49 48 45 45 47 45 43 40 38 36 33 30 27 24 23
4 11 18 8 10 11 14 11 6 8 9 9 9 10 12 13 14 15 16 18 18 17 16 12 9 4 4 10 16 23 28 33 38 42 46 47 43 43 44 43 43 42 39 37 36 33 30 27 25
Wind_Direction
275 294 312 299 262 236 261 250 273 263 248 233 278 244 257 256 276 321 190 188 174 187 195 190 192 193 194 196 197 195 192 192 192 197 196 197 196 193 193 192 188 182 177 182 193 230 200 202 262
257 266 264 264 256 261 257 238 236 247 258 161 263 254 256 257 246 258 236 202 173 185 195 193 194 195 197 199 199 197 196 198 199 204 207 209 206 207 212 210 203 195 190 183 186 201 241 277 285
262 249 265 248 247 253 264 275 253 266 287 231 248 239 280 248 225 214 227 221 196 188 192 198 197 197 199 199 199 198 200 202 203 202 203 200 194 200 199 200 203 204 203 211 230 254 266 272 277
243 223 247 245 253 255 264 280 291 283 235 235 245 270 227 247 226 209 262 233 202 195 193 203 198 199 199 200 201 200 203 204 204 208 215 210 213 220 215 217 218 221 228 240 248 257 265 269 271
213 251 248 251 254 257 263 263 257 270 260 237 229 256 258 258 262 256 262 239 201 197 195 209 199 200 199 201 203 204 206 203 209 215 216 217 213 215 224 228 231 234 238 244 251 260 267 270 269
236 241 242 249 259 253 248 257 260 255 253 261 251 256 263 263 259 259 249 234 204 199 198 211 200 199 198 198 200 202 205 206 208 213 220 226 224 229 233 235 238 241 243 246 251 256 255 255 256
238 241 245 258 267 269 265 265 252 248 259 252 251 246 267 226 253 249 234 217 198 194 200 204 198 197 199 202 204 206 205 203 209 221 229 234 234 234 237 239 240 241 243 245 245 241 238 239 248
243 247 258 254 260 265 270 273 261 254 255 260 255 242 249 261 234 245 224 212 201 198 207 199 200 200 197 199 204 205 206 211 219 227 233 237 236 236 239 241 241 240 237 230 232 229 233 231 240
240 246 242 246 251 265 268 256 264 271 245 256 254 252 254 242 232 231 215 203 201 204 210 204 206 201 200 202 203 208 213 219 224 230 233 234 235 235 237 235 229 223 223 222 227 232 237 243 249
215 236 238 248 264 275 279 285 274 258 247 244 244 241 249 235 230 229 219 213 210 207 215 209 208 205 204 205 208 212 217 221 223 226 229 228 231 231 227 224 218 216 218 222 223 231 242 250 254
232 245 254 250 258 272 282 278 271 268 258 255 249 246 244 243 238 231 230 223 223 215 218 213 209 210 209 208 214 214 219 219 220 226 229 225 226 227 222 218 215 216 219 223 229 233 238 241 242
255 254 255 257 268 280 276 275 263 259 254 260 262 262 255 234 226 229 231 226 219 216 215 213 214 211 211 211 215 211 216 215 219 225 227 223 222 218 217 216 216 217 219 224 225 228 231 235 239
246 254 268 265 264 268 273 262 262 258 254 259 259 257 259 250 241 237 234 232 224 218 212 214 205 209 210 211 212 212 216 219 223 226 223 219 215 215 216 215 218 220 220 221 223 226 227 231 235
269 266 267 266 266 268 262 267 257 252 248 251 255 255 250 246 248 245 235 230 223 219 215 212 213 211 210 212 214 215 218 223 224 225 220 213 213 215 216 218 218 219 219 220 222 222 225 229 234
266 270 269 259 256 247 269 272 250 252 246 249 252 253 252 251 245 245 240 237 228 221 218 216 218 213 214 215 215 217 220 223 222 221 214 211 213 215 218 219 217 218 218 218 220 222 224 230 234
260 259 263 269 236 228 193 258 267 283 231 245 250 253 252 252 247 247 240 236 230 224 217 217 215 216 216 217 217 218 219 220 219 217 214 213 214 216 217 218 216 217 217 218 220 222 225 226 229
240 259 259 261 215 196 203 262 264 262 257 246 247 252 254 252 247 243 242 237 228 222 216 218 218 220 218 219 218 219 219 217 217 216 216 215 215 216 217 217 217 215 215 218 220 222 226 227 227
245 248 253 258 271 221 242 255 265 273 271 257 261 262 255 248 248 243 242 236 230 225 219 217 221 225 219 220 218 216 216 215 216 218 218 216 216 216 218 217 217 216 216 216 221 220 221 228 229
249 261 270 271 273 266 262 269 264 264 262 259 254 253 252 252 251 248 244 242 239 223 220 214 219 223 220 217 216 215 215 215 216 217 217 217 216 217 217 218 218 216 219 219 218 221 219 223 223
240 249 257 267 260 251 266 272 273 267 264 258 255 252 251 250 247 247 243 234 233 229 224 213 217 225 222 222 222 222 219 219 219 217 217 216 217 217 216 216 218 218 220 219 219 218 219 220 220
233 239 249 252 259 259 261 277 275 266 249 247 251 253 254 250 248 245 244 234 226 227 225 227 222 226 224 223 219 217 216 218 216 216 216 216 215 215 216 218 218 219 221 222 220 218 219 219 218
239 234 252 260 264 251 224 276 272 280 276 259 248 248 250 251 249 251 247 236 225 226 229 227 224 227 226 221 220 219 218 216 219 219 218 218 219 215 215 218 218 218 220 219 220 219 220 219 221
237 265 243 243 236 252 252 250 279 286 268 254 254 246 250 256 253 248 246 239 234 230 228 228 225 224 226 225 223 221 220 221 220 217 217 216 213 214 215 215 217 219 220 218 219 220 221 221 223
228 225 151 245 232 235 244 230 277 259 257 268 288 278 288 248 267 249 254 243 236 230 229 229 227 224 224 226 224 223 222 218 219 219 217 215 213 214 214 214 217 218 219 218 218 219 221 223 226
204 192 208 214 209 236 247 219 242 135 208 297 284 272 220 297 302 310 292 274 257 225 223 223 222 219 220 225 224 223 223 222 222 223 220 216 214 213 213 214 215 217 218 216 217 220 222 227 230
201 200 207 224 228 246 234 220 237 238 260 271 307 281 290 280 352 22 18 7 324 238 220 217 215 212 215 222 224 223 222 221 222 225 224 221 219 217 215 216 216 217 217 216 217 222 224 229 231
205 223 230 280 281 266 259 241 268 278 258 281 30 47 71 57 47 41 29 32 28 8 225 216 213 210 211 217 215 214 217 215 221 224 226 225 223 220 219 219 217 216 216 217 220 223 228 233 235
252 310 225 226 235 238 246 259 264 234 245 70 38 44 44 38 37 40 37 37 38 39 50 194 210 214 210 213 212 214 219 218 222 224 225 226 224 223 221 219 218 218 218 218 222 225 229 234 238
205 238 245 255 239 247 248 241 9 19 41 77 64 50 41 40 37 39 40 41 42 47 51 60 115 203 206 212 213 213 215 214 218 221 226 227 225 223 223 222 220 220 220 221 224 228 232 236 240
311 274 243 250 236 241 256 258 71 83 76 84 78 65 53 49 46 43 42 43 41 42 47 51 60 74 209 217 215 214 214 214 217 219 226 228 227 225 224 223 221 222 223 225 227 229 233 237 242